Kimball, NE

6:34 AM MDT on April 25, 2017 (GMT -0600)
Kimball Municipal-Arraj

Weather History for KIBM - August, 2013

Change the Weather History Date:

Tuesday, August 6, 2013

  Actual Average (KSNY) Record (KSNY)
Temperature  
Mean Temperature 74 °F -  
Max Temperature 88 °F 87 °F 103 °F (2012)
Min Temperature 59 °F 56 °F 47 °F (1974)
Cooling Degree Days 8    
Growing Degree Days 24 (Base 50)    
Moisture  
Dew Point 50 °F    
Average Humidity 51    
Maximum Humidity 82    
Minimum Humidity 21    
Precipitation  
Precipitation 0.00 in - - ()
Sea Level Pressure  
Sea Level Pressure 30.03 in    
Wind  
Wind Speed 9 mph (WNW)    
Max Wind Speed 21 mph    
Max Gust Speed 31 mph    
Visibility 10 miles    
Events Rain , Thunderstorm    
Averages and records for this station are not official NWS values.
T = Trace of Precipitation, MM = Missing Value Source: NWS Daily Summary

Daily Weather History Graph

Daily Weather History Graph

Search for Another Location

Airport or City:

Trip Planner

Search our weather history database for the weather conditions in past years. The results will help you decide how hot, cold, wet, or windy it might be!

Date:

Astronomy

Aug. 06, 2013 Rise Set
Actual Time 6:55 AM CDT 9:05 PM CDT
Civil Twilight 6:24 AM CDT 9:35 PM CDT
Nautical Twilight 5:47 AM CDT 10:12 PM CDT
Astronomical Twilight 5:06 AM CDT 10:53 PM CDT
Moon 6:49 AM CDT (8/6) 8:40 PM CDT (8/6)
Length of Visible Light 15h 10m
Length of Day
14h 09m
Waning Crescent, 0% of the Moon is Illuminated
Aug 6
Waning Crescent
Aug 6
New
Aug 14
First Quarter
Aug 20
Full
Aug 28
Last Quarter

Hourly Weather History & Observations

Time (CDT) Temp. Dew Point Humidity Pressure Visibility Wind Dir Wind Speed Gust Speed Precip Events Conditions
12:15 AM 70.5 °F 49.5 °F 47% 30.04 in 10.0 mi SSE 8.1 mph - N/A   Clear
12:35 AM 68.0 °F 51.4 °F 55% 30.04 in 10.0 mi SSW 9.2 mph - N/A   Clear
12:55 AM 66.7 °F 52.9 °F 61% 30.03 in 10.0 mi SSW 11.5 mph - N/A   Clear
1:15 AM 66.0 °F 53.1 °F 63% 30.03 in 10.0 mi South 9.2 mph - N/A   Clear
1:35 AM 65.3 °F 52.7 °F 64% 30.03 in 10.0 mi SSW 8.1 mph - N/A   Clear
1:55 AM 63.3 °F 52.2 °F 67% 30.02 in 10.0 mi SSE 5.8 mph - N/A   Clear
2:15 AM 62.4 °F 52.3 °F 70% 30.01 in 10.0 mi SSW 6.9 mph - N/A   Clear
2:35 AM 62.1 °F 53.2 °F 73% 30.02 in 10.0 mi SSW 5.8 mph - N/A   Clear
2:55 AM 61.3 °F 52.9 °F 74% 30.01 in 10.0 mi SSW 4.6 mph - N/A   Clear
3:15 AM 62.6 °F 52.5 °F 70% 30.00 in 10.0 mi SW 9.2 mph - N/A   Clear
3:35 AM 62.1 °F 52.5 °F 71% 30.00 in 10.0 mi SSW 6.9 mph - N/A   Clear
3:55 AM 62.6 °F 52.5 °F 70% 29.99 in 10.0 mi SSW 8.1 mph - N/A   Clear
4:15 AM 61.5 °F 52.7 °F 73% 29.99 in 10.0 mi SSE 9.2 mph - N/A   Clear
4:35 AM 59.9 °F 52.7 °F 77% 29.99 in 10.0 mi South 9.2 mph - N/A   Clear
4:55 AM 61.0 °F 52.9 °F 75% 29.99 in 10.0 mi SW 8.1 mph - N/A   Clear
5:15 AM 59.7 °F 52.7 °F 78% 29.99 in 10.0 mi SSW 9.2 mph - N/A   Clear
5:35 AM 61.7 °F 53.1 °F 73% 29.99 in 10.0 mi SW 10.4 mph - N/A   Clear
5:55 AM 61.5 °F 53.2 °F 74% 29.99 in 10.0 mi SW 9.2 mph - N/A   Clear
6:15 AM 60.3 °F 52.9 °F 77% 29.99 in 10.0 mi West 9.2 mph - N/A   Clear
6:35 AM 59.2 °F 53.1 °F 80% 29.99 in 10.0 mi West 5.8 mph - N/A   Clear
6:55 AM 59.0 °F 53.6 °F 82% 30.00 in 10.0 mi West 5.8 mph - N/A   Clear
7:15 AM 59.2 °F 53.6 °F 82% 30.00 in 10.0 mi West 6.9 mph - N/A   Clear
7:55 AM 63.7 °F 54.5 °F 72% 30.01 in 10.0 mi WNW 5.8 mph - N/A   Clear
8:15 AM 65.8 °F 53.8 °F 65% 30.02 in 10.0 mi West 8.1 mph - N/A   Clear
8:35 AM 66.6 °F 52.2 °F 60% 30.03 in 10.0 mi NW 8.1 mph - N/A   Clear
8:55 AM 66.4 °F 51.6 °F 59% 30.02 in 10.0 mi WNW 9.2 mph - N/A   Clear
9:15 AM 71.6 °F 49.3 °F 45% 30.03 in 10.0 mi NW 11.5 mph - N/A   Clear
9:35 AM 71.8 °F 50.9 °F 48% 30.03 in 10.0 mi NW 10.4 mph - N/A   Clear
9:55 AM 71.6 °F 50.9 °F 48% 30.04 in 10.0 mi NW 11.5 mph 17.3 mph N/A   Clear
10:15 AM 71.8 °F 50.7 °F 47% 30.03 in 10.0 mi NNW 11.5 mph - N/A   Clear
10:35 AM 72.9 °F 50.2 °F 45% 30.03 in 10.0 mi NW 10.4 mph - N/A   Clear
10:55 AM 74.5 °F 49.6 °F 42% 30.04 in 10.0 mi NNW 11.5 mph - N/A   Clear
11:15 AM 75.4 °F 50.0 °F 41% 30.04 in 10.0 mi NNW 11.5 mph - N/A   Clear
11:35 AM 77.4 °F 50.2 °F 38% 30.04 in 10.0 mi NW 11.5 mph - N/A   Clear
11:55 AM 77.7 °F 50.0 °F 38% 30.04 in 10.0 mi NNW 10.4 mph - N/A   Clear
12:15 PM 77.4 °F 50.7 °F 39% 30.04 in 10.0 mi NNW 10.4 mph - N/A   Clear
12:35 PM 79.9 °F 50.2 °F 35% 30.04 in 10.0 mi North 11.5 mph - N/A   Clear
12:55 PM 80.8 °F 51.1 °F 35% 30.04 in 10.0 mi NW 10.4 mph - N/A   Clear
1:15 PM 82.4 °F 50.0 °F 32% 30.04 in 10.0 mi North 8.1 mph 16.1 mph N/A   Clear
1:35 PM 83.8 °F 48.7 °F 29% 30.04 in 10.0 mi North 10.4 mph 16.1 mph N/A   Clear
1:55 PM 85.5 °F 45.9 °F 25% 30.04 in 10.0 mi NNE 10.4 mph - N/A   Clear
2:15 PM 85.5 °F 45.5 °F 25% 30.03 in 10.0 mi NNW 10.4 mph - N/A   Clear
2:35 PM 84.2 °F 46.2 °F 26% 30.03 in 10.0 mi North 8.1 mph - N/A   Clear
2:55 PM 86.0 °F 42.4 °F 22% 30.03 in 10.0 mi NNW 5.8 mph - N/A   Clear
3:15 PM 86.0 °F 44.6 °F 23% 30.02 in 10.0 mi North 5.8 mph - N/A   Clear
3:35 PM 86.4 °F 45.5 °F 24% 30.02 in 10.0 mi NNE 10.4 mph 17.3 mph N/A   Clear
3:55 PM 84.7 °F 44.1 °F 24% 30.02 in 10.0 mi NNE 9.2 mph - N/A   Clear
4:15 PM 88.0 °F 46.4 °F 24% 30.00 in 10.0 mi ENE 10.4 mph 18.4 mph N/A   Clear
4:35 PM 88.0 °F 44.4 °F 22% 30.00 in 10.0 mi NNE 9.2 mph 18.4 mph N/A   Clear
4:55 PM 88.9 °F 44.6 °F 21% 30.00 in 10.0 mi NE 16.1 mph 19.6 mph N/A   Clear
5:15 PM 85.3 °F 46.4 °F 26% 30.00 in 10.0 mi NE 11.5 mph - N/A   Clear
5:35 PM 84.6 °F 43.7 °F 24% 30.01 in 10.0 mi NE 6.9 mph - N/A   Clear
5:55 PM 84.2 °F 46.9 °F 27% 30.02 in 10.0 mi NE 11.5 mph 16.1 mph N/A   Clear
6:15 PM 83.3 °F 48.0 °F 29% 30.04 in 10.0 mi East 5.8 mph - N/A Thunderstorm Thunderstorm
6:35 PM 81.3 °F 50.7 °F 34% 30.03 in 10.0 mi ESE 9.2 mph 17.3 mph N/A Rain , Thunderstorm Light Thunderstorms and Rain
6:55 PM 75.9 °F 48.7 °F 38% 30.04 in 10.0 mi WSW 13.8 mph 21.9 mph N/A Rain Light Rain
7:15 PM 73.8 °F 46.6 °F 38% 30.04 in 10.0 mi SW 20.7 mph 31.1 mph N/A Thunderstorm Thunderstorm
7:35 PM 73.6 °F 47.7 °F 40% 30.03 in 10.0 mi SSW 11.5 mph - N/A   Clear
7:55 PM 75.2 °F 46.9 °F 37% 30.02 in 10.0 mi SW 5.8 mph - N/A   Clear
8:15 PM 76.6 °F 46.2 °F 34% 30.02 in 10.0 mi Calm Calm - N/A   Clear
8:35 PM 76.6 °F 45.9 °F 34% 30.04 in 10.0 mi Calm Calm - N/A   Clear
8:55 PM 72.3 °F 48.2 °F 42% 30.06 in 10.0 mi SE 11.5 mph 19.6 mph N/A   Clear
9:15 PM 70.5 °F 49.1 °F 47% 30.06 in 10.0 mi Calm Calm - N/A   Scattered Clouds
9:35 PM 69.3 °F 48.6 °F 48% 30.05 in 10.0 mi ESE 3.5 mph - N/A   Scattered Clouds
9:55 PM 69.1 °F 55.2 °F 61% 30.06 in 10.0 mi ENE 13.8 mph - N/A   Clear
10:15 PM 64.9 °F 56.5 °F 74% 30.08 in 10.0 mi NE 13.8 mph 21.9 mph N/A   Clear
10:35 PM 63.0 °F 53.4 °F 71% 30.09 in 10.0 mi ENE 10.4 mph - N/A   Clear
10:55 PM 61.9 °F 53.4 °F 74% 30.10 in 10.0 mi ESE 12.7 mph - N/A   Clear
11:15 PM 60.8 °F 51.8 °F 72% 30.09 in 10.0 mi ESE 9.2 mph - N/A   Clear
11:35 PM 60.3 °F 51.1 °F 72% 30.09 in 10.0 mi ESE 8.1 mph - N/A   Clear
11:55 PM 60.8 °F 51.1 °F 70% 30.09 in 10.0 mi ESE 6.9 mph - N/A   Clear